GFSCGP_925_spd_000.txt.gz
Wind_Speed
19 15 22 25 26 26 24 23 23 22 16 9 15 21 18 13 14 19 16 9 7 10 12 19 17 15 12 10 8 8 5 4 5 10 8 7 6 6 3 4 8 9 11 9
21 24 26 26 23 27 27 25 23 20 18 14 14 15 13 15 17 19 17 13 8 12 14 15 18 15 14 11 10 8 6 4 4 8 6 3 4 4 2 3 3 5 3 8
26 25 26 27 24 26 25 24 20 22 17 16 15 14 14 21 18 13 12 5 3 14 13 15 14 16 14 13 10 9 5 3 3 6 9 7 9 7 4 4 4 3 3 6
30 26 28 28 26 25 24 25 24 17 14 12 14 13 13 15 16 11 5 8 10 15 14 15 14 16 15 14 12 9 6 4 4 5 9 9 9 10 4 3 7 3 3 5
32 28 30 27 28 27 23 23 18 13 15 14 15 12 14 14 17 7 1 6 13 15 15 16 15 18 16 14 13 9 7 4 1 1 6 9 9 10 8 3 6 7 5 4
29 24 29 30 25 25 24 20 11 12 12 12 15 15 14 15 4 4 1 5 13 14 15 15 17 19 16 13 14 10 7 4 3 0 4 6 8 11 8 4 7 10 6 5
26 33 30 29 29 22 23 12 11 10 11 11 17 15 15 9 10 1 2 4 12 13 14 14 14 14 15 14 14 10 8 7 4 1 3 6 10 11 11 10 10 9 11 10
23 22 33 27 29 24 21 17 11 11 11 16 20 16 3 5 6 2 1 4 12 12 13 14 14 14 16 14 14 12 9 8 6 3 2 4 7 9 9 9 10 9 9 11
22 29 23 32 23 22 19 21 17 17 15 12 8 10 13 12 7 9 10 9 12 11 13 14 14 15 16 15 14 10 9 9 5 3 2 2 6 8 8 10 12 12 11 13
25 17 28 30 25 22 22 19 16 12 15 13 11 14 4 11 6 10 8 7 12 11 13 13 13 14 14 16 14 10 8 7 5 4 4 4 8 8 8 6 7 9 12 13
26 17 21 24 26 22 19 18 16 14 14 11 9 9 3 11 9 9 8 11 12 13 14 13 13 15 14 16 16 12 10 10 7 5 4 3 8 6 9 8 11 9 13 12
32 11 16 27 27 26 23 23 17 10 15 10 10 3 11 8 8 7 11 12 14 15 14 14 13 16 15 15 16 14 12 11 9 8 8 4 8 8 10 11 13 10 12 14
27 21 13 19 22 23 23 24 19 13 9 14 11 10 10 11 9 6 13 15 14 14 14 13 13 12 14 16 16 16 13 12 11 10 10 5 9 10 11 11 13 14 14 17
22 19 22 16 20 22 26 24 23 19 13 14 14 14 13 12 9 10 14 18 16 15 14 14 13 13 16 18 17 17 15 14 12 12 13 8 9 12 10 10 11 15 15 17
21 26 21 23 23 27 25 25 26 24 19 18 16 16 11 14 12 11 13 16 17 16 17 14 13 12 15 18 17 17 16 16 14 14 16 11 9 10 11 11 12 18 18 18
20 20 21 24 27 26 28 27 26 25 23 22 20 17 13 9 18 13 16 15 15 16 17 15 14 14 14 19 18 18 17 18 16 14 17 15 12 10 11 13 12 14 14 17
17 17 22 19 23 23 24 26 26 21 21 22 20 15 13 11 11 8 16 14 13 16 17 17 16 14 17 21 20 19 18 20 18 15 18 17 15 13 12 13 11 9 12 14
13 22 17 15 17 26 13 21 22 21 18 19 17 16 16 13 8 11 13 17 15 15 16 17 15 15 22 23 22 21 19 20 19 16 19 19 18 16 14 16 14 12 9 11
18 16 11 15 15 13 23 20 22 21 18 18 18 15 14 16 13 9 9 9 14 12 13 15 23 22 24 23 25 22 21 22 20 19 19 20 20 21 18 16 19 15 11 11
15 15 12 13 16 21 15 22 15 14 15 15 16 13 14 14 11 9 12 11 15 14 12 15 26 26 26 25 27 24 21 23 21 21 20 21 20 21 21 18 20 18 15 13
14 15 17 13 8 13 20 14 18 17 8 13 14 15 13 12 8 8 10 10 14 15 13 22 29 27 29 28 28 24 23 23 23 21 21 21 22 22 21 20 20 17 16 15
14 15 12 15 13 11 13 17 20 6 6 6 14 14 12 9 8 8 7 2 12 15 14 21 23 25 31 30 28 24 23 23 23 22 22 23 22 21 21 22 21 19 17 14
6 3 9 8 11 3 6 8 7 8 7 7 14 12 12 12 12 11 8 9 8 11 11 19 20 24 28 32 31 26 24 24 24 22 23 24 26 21 23 23 21 19 18 13
6 13 6 8 17 14 11 8 7 10 8 7 9 9 12 13 13 12 11 11 8 7 10 18 20 22 24 31 31 29 26 26 24 22 24 27 27 21 24 22 20 19 20 18
10 10 13 12 10 10 2 9 7 10 8 10 8 7 8 10 12 11 9 10 8 9 12 17 15 19 25 28 28 30 28 29 26 24 25 26 25 25 24 23 22 22 22 24
8 4 4 4 18 12 12 16 28 13 3 3 9 8 12 8 10 13 11 10 10 9 13 13 12 13 24 28 27 29 32 31 26 24 25 26 24 26 21 22 20 23 19 24

GFSCGP_925_spd_006.txt.gz
Wind_Speed
14 11 16 26 22 13 8 7 9 20 24 5 12 15 23 15 9 14 10 10 10 9 6 17 27 33 28 24 21 18 14 11 8 5 7 8 9 10 11 10 10 9 10 9
7 25 24 17 16 13 12 14 17 20 23 6 17 19 22 12 7 9 12 11 7 7 10 12 23 28 27 24 21 16 13 11 8 4 6 9 8 8 10 9 10 9 8 10
22 8 19 17 15 13 16 18 17 18 21 16 11 16 9 6 3 3 7 4 8 17 15 14 13 21 27 24 21 17 14 10 7 3 1 2 5 6 5 5 6 6 5 4
18 21 16 21 18 17 19 17 19 16 12 8 6 7 6 6 5 5 8 7 10 14 12 15 13 15 26 24 20 17 14 12 7 3 0 2 4 6 5 2 2 2 3 5
17 21 24 21 26 21 18 18 18 20 13 8 22 4 8 6 6 9 9 6 10 17 19 16 14 21 26 22 20 17 16 10 10 5 3 1 4 4 4 3 3 3 4 5
26 5 21 24 18 22 23 12 12 12 9 11 16 7 14 5 8 5 2 7 9 9 9 9 17 24 23 21 19 20 15 12 8 8 5 2 3 7 7 4 3 1 5 7
14 24 16 15 21 20 15 10 4 3 4 11 10 7 11 6 8 8 8 9 8 9 12 14 14 10 19 21 22 18 13 12 9 6 9 1 3 7 7 3 2 2 6 11
16 12 27 21 20 17 20 14 8 7 5 4 6 6 9 9 4 7 7 10 11 10 10 13 12 13 19 25 23 18 14 12 10 8 8 4 3 7 7 4 3 3 7 10
16 16 8 21 19 19 13 15 21 4 4 2 4 6 9 5 6 6 10 12 11 11 12 14 12 16 21 25 23 19 15 13 9 11 8 5 5 5 6 6 6 7 9 9
4 5 16 16 15 24 26 5 7 2 10 6 4 4 5 1 7 6 8 10 8 8 11 12 11 14 24 27 23 18 16 16 12 10 8 7 7 5 6 6 7 9 8 8
9 3 5 16 21 27 11 10 6 5 6 8 3 7 8 13 10 15 13 13 13 14 14 13 10 18 26 26 21 16 16 16 15 10 8 8 7 5 6 6 8 8 8 8
25 4 11 22 5 16 14 14 10 9 5 2 6 10 3 12 13 16 11 12 11 12 13 12 11 16 21 25 21 17 17 16 15 11 7 7 8 8 10 8 10 9 9 11
7 16 9 8 2 8 16 14 8 5 5 8 7 7 3 5 12 13 14 10 11 11 12 11 9 11 16 22 23 19 16 17 16 13 9 10 9 9 9 8 10 10 12 13
10 7 28 15 11 5 6 18 14 8 5 6 9 5 3 2 13 9 11 13 15 16 16 14 11 10 16 22 25 21 17 19 18 17 12 15 9 9 9 9 11 14 14 15
8 13 21 31 18 5 8 18 19 17 13 11 8 11 9 10 16 17 15 13 14 15 15 16 14 11 14 20 24 24 20 20 21 20 16 14 12 11 11 11 13 13 15 15
9 6 16 23 30 27 18 15 22 16 8 8 12 9 8 17 9 9 15 17 17 18 18 17 16 14 13 20 24 27 22 22 28 23 19 16 15 12 13 16 17 16 13 13
4 5 3 21 19 20 20 21 19 19 15 13 11 7 8 8 14 17 15 19 20 19 18 18 18 16 19 23 29 28 26 27 32 26 22 19 12 15 19 20 18 17 16 16
9 5 4 9 11 9 9 14 15 22 19 12 5 10 12 13 15 18 21 21 18 19 19 18 16 18 24 28 32 34 29 31 34 29 25 22 14 20 18 21 19 16 17 17
18 8 5 5 15 4 4 5 11 9 7 9 17 11 12 8 6 5 18 20 21 20 19 17 27 29 28 32 36 35 31 33 32 31 28 25 18 21 19 20 22 21 17 19
16 17 4 3 8 7 3 5 11 9 12 10 12 12 11 9 6 5 16 17 15 16 16 18 26 27 29 30 35 32 29 30 29 32 33 29 24 23 22 22 26 22 19 19
4 4 12 6 4 2 13 19 4 12 5 11 14 14 13 9 8 9 18 13 15 18 17 24 26 28 33 33 35 28 29 28 35 38 35 32 30 27 24 24 23 23 22 20
4 4 2 4 1 4 24 7 8 8 15 15 8 10 11 10 8 8 19 18 17 16 14 25 24 24 30 35 34 27 28 37 36 35 36 36 34 32 28 29 24 22 21 22
2 4 4 5 1 7 6 7 5 8 12 17 18 10 14 10 9 12 13 15 17 18 17 28 26 24 27 35 36 29 32 39 39 35 33 38 36 35 32 32 29 25 23 22
3 7 3 7 2 17 9 11 14 17 19 19 20 16 6 12 11 9 13 15 16 16 16 25 22 20 23 31 35 37 37 41 38 36 34 37 38 35 36 35 35 31 28 25
2 5 7 6 8 19 0 16 19 21 21 25 26 20 15 2 9 10 10 14 15 16 19 26 22 22 27 32 32 33 40 41 34 36 33 35 36 37 35 35 37 36 33 31
5 4 3 3 12 7 14 15 17 19 24 23 24 24 22 12 5 9 12 14 14 15 21 20 24 26 28 33 33 35 40 41 36 31 30 32 31 31 31 33 32 34 32 29

GFSCGP_925_spd_009.txt.gz
Wind_Speed
9 8 19 21 20 12 13 12 18 18 5 7 9 10 17 19 9 16 16 17 12 12 2 15 24 30 36 33 29 25 20 16 14 10 8 6 8 9 11 12 13 12 11 11
7 27 17 12 14 16 11 9 18 15 12 5 12 15 16 17 14 16 21 14 11 3 4 6 19 27 32 33 29 23 18 16 13 8 5 6 7 7 10 10 10 12 10 10
25 18 15 19 14 17 17 19 19 20 6 7 11 12 16 17 8 10 8 5 6 11 11 12 14 21 28 32 28 23 19 15 11 7 3 3 5 6 8 7 6 7 6 7
17 23 17 20 20 19 19 19 19 17 8 9 4 5 5 8 10 7 9 7 9 8 7 12 15 13 24 29 24 21 18 14 11 7 3 2 4 6 5 4 3 3 2 3
16 19 25 17 29 20 18 12 12 8 7 5 16 4 5 4 10 10 10 9 9 8 10 14 13 17 26 26 23 20 17 15 12 7 4 3 3 4 2 1 0 2 2 3
20 9 18 27 10 18 8 3 3 6 2 8 21 5 8 6 8 6 6 6 4 7 10 9 13 22 22 22 21 19 19 14 12 9 6 4 0 1 3 2 1 2 4 5
8 21 4 10 20 10 10 6 2 3 4 6 8 6 14 10 10 12 11 5 8 8 11 13 15 10 18 21 21 21 18 15 11 7 7 4 2 3 2 2 1 0 5 8
12 10 27 11 19 12 22 15 6 6 4 4 6 7 10 9 12 10 9 7 9 9 9 12 13 12 18 23 23 21 17 14 11 7 9 4 3 3 1 2 1 3 6 11
13 14 2 22 8 18 11 15 12 3 1 1 4 7 8 3 1 2 6 8 9 9 11 13 11 13 20 24 26 22 17 13 10 8 8 6 4 4 2 3 3 6 8 10
2 2 9 14 18 17 9 9 9 4 4 3 5 4 6 3 2 3 6 8 7 7 9 10 9 13 21 27 26 19 16 13 11 11 8 7 6 4 3 3 5 7 7 8
3 2 4 10 14 23 6 15 3 8 5 6 1 6 8 9 9 11 9 8 11 11 12 12 9 15 24 27 24 19 15 14 11 11 8 6 7 4 4 3 6 5 6 7
6 5 9 11 4 17 23 19 20 8 8 2 5 12 5 8 10 9 9 8 7 8 12 10 11 14 18 24 22 18 16 16 14 10 9 7 9 5 5 5 7 5 7 8
8 5 1 5 5 4 14 22 16 7 3 6 6 6 3 5 8 11 10 8 9 9 9 8 8 10 13 21 22 18 17 17 15 11 9 9 8 7 5 5 8 7 8 9
5 5 12 17 4 4 5 17 17 14 10 10 10 5 3 3 7 7 7 8 11 12 13 11 9 9 14 20 24 20 19 18 16 13 10 12 8 7 6 6 10 9 9 12
3 4 7 17 21 11 4 11 20 20 20 15 16 10 7 8 10 14 9 8 10 11 12 13 12 10 11 17 23 23 20 19 19 16 14 10 8 8 8 9 11 10 9 10
6 5 10 9 15 23 22 8 16 20 14 11 8 9 8 7 8 7 11 13 14 15 15 14 12 11 11 18 23 24 22 21 21 19 17 12 11 10 10 11 11 12 11 9
3 4 10 7 13 9 16 28 15 9 13 15 9 9 7 4 11 12 10 14 17 16 17 16 16 15 17 21 27 26 26 24 24 22 19 16 13 13 13 13 14 12 10 12
6 4 3 5 2 9 13 9 18 14 8 12 4 9 14 11 17 16 16 19 15 15 17 16 15 15 21 25 28 30 27 26 28 25 22 18 12 13 19 16 14 11 10 12
12 6 3 3 5 4 6 5 4 9 9 8 11 8 10 6 6 2 11 15 21 20 18 15 22 25 25 29 31 31 28 28 29 28 26 22 14 18 18 18 15 13 12 12
11 15 6 2 3 7 4 17 15 11 9 12 13 8 8 10 8 7 11 11 11 10 13 15 22 24 25 27 31 30 27 27 26 29 29 26 19 21 18 19 18 15 13 15
6 3 8 3 4 3 17 20 18 9 5 18 16 15 10 10 11 17 14 16 17 16 16 23 25 25 30 32 32 25 26 27 35 35 30 29 24 25 21 19 22 18 16 16
3 5 2 3 4 3 22 7 8 6 10 14 18 14 10 14 9 7 16 18 16 13 13 23 21 23 27 33 33 25 27 36 35 35 33 30 29 26 25 24 24 22 20 19
3 3 4 3 2 1 7 3 4 5 8 12 17 19 12 13 8 10 12 17 17 18 16 26 23 22 27 33 35 28 30 34 36 34 34 33 33 30 28 28 26 24 23 22
3 4 2 7 4 11 10 4 7 12 11 15 15 17 10 7 6 10 12 13 14 13 14 22 21 18 21 31 34 38 33 37 36 33 34 34 34 33 31 30 29 28 26 26
3 3 4 5 9 13 1 17 16 18 16 16 18 15 13 9 6 3 13 15 15 16 16 23 22 21 25 31 32 31 36 37 33 34 34 32 34 36 33 33 33 33 30 30
2 1 1 1 13 7 10 13 19 14 16 16 18 19 18 14 10 5 6 15 15 15 19 18 22 24 25 29 31 34 38 39 34 29 30 31 29 32 29 30 30 31 32 31

GFSCGP_925_spd_015.txt.gz
Wind_Speed
20 13 27 31 26 18 18 20 26 19 14 14 19 18 12 17 18 20 20 20 20 19 18 9 7 9 14 20 25 27 28 28 25 18 12 9 10 10 11 11 10 10 10 10
11 29 30 21 22 23 24 23 21 16 12 12 15 21 15 16 22 22 20 20 20 18 16 6 2 6 15 18 22 27 29 30 23 16 12 7 7 8 8 9 8 6 6 7
26 38 18 20 23 25 27 28 23 19 12 13 13 23 18 22 13 16 18 19 19 16 12 4 4 7 10 17 22 26 26 26 21 15 12 9 7 6 5 3 2 1 4 5
22 25 24 22 30 23 26 24 22 20 13 16 3 16 15 21 22 21 19 16 17 11 7 5 8 11 14 17 22 24 23 22 19 17 10 8 5 4 2 2 1 1 1 2
18 18 23 26 26 26 18 14 17 19 18 18 17 11 13 10 20 23 21 17 10 4 4 7 9 13 16 21 23 20 20 19 17 15 10 8 5 3 1 1 1 1 1 2
18 12 26 29 20 22 11 13 14 8 10 13 15 11 12 16 19 14 13 9 2 1 5 9 12 17 19 22 21 20 19 16 16 13 10 6 4 2 1 2 1 1 2 2
16 17 6 15 19 20 20 14 7 7 7 10 15 13 19 17 18 19 18 6 1 5 8 11 15 16 22 22 21 19 18 16 14 12 9 6 3 2 1 1 1 1 3 5
14 11 21 18 21 17 27 21 9 9 6 7 6 10 8 18 19 22 15 10 4 8 9 12 14 16 23 22 21 20 18 14 13 10 8 6 3 2 1 1 1 1 5 7
12 17 14 20 19 22 25 20 14 2 2 4 5 7 10 16 12 8 10 5 8 10 11 14 16 19 22 21 21 20 17 13 12 9 8 6 4 3 2 3 2 4 7 8
7 10 12 23 23 24 17 20 10 9 10 8 5 5 8 3 15 10 9 9 10 11 12 14 16 18 20 20 19 17 15 13 11 9 8 6 5 4 4 4 5 6 7 7
6 6 13 23 21 23 11 21 7 9 5 6 3 5 8 11 5 4 3 10 13 14 14 14 15 18 18 18 18 17 14 12 10 8 7 6 6 5 5 5 5 5 7 6
4 5 6 24 10 19 20 22 20 10 9 8 2 4 2 8 5 6 2 10 10 13 14 15 15 18 17 18 18 16 13 11 10 9 7 6 7 6 6 5 5 5 7 7
8 4 7 10 6 17 26 21 17 6 5 15 9 3 4 3 3 1 6 12 12 13 15 15 15 14 17 18 18 15 13 11 9 9 7 7 7 6 6 7 6 6 7 8
8 3 7 8 7 1 24 23 21 14 9 10 17 12 17 8 1 6 6 8 12 14 16 16 16 15 17 19 18 16 12 10 10 9 7 8 7 7 7 8 7 7 9 9
4 2 5 13 11 9 5 23 23 21 16 12 9 23 20 16 5 2 6 12 12 15 17 17 17 15 16 18 17 16 13 12 12 10 9 8 8 8 9 9 8 8 10 9
2 2 9 9 10 8 8 7 11 26 23 18 13 14 12 13 7 4 8 14 16 16 16 17 17 17 15 19 19 17 15 14 13 11 11 10 10 9 11 10 8 8 9 10
1 4 3 7 3 5 11 14 9 9 21 20 21 27 11 14 13 8 9 16 18 18 19 20 20 18 19 21 20 19 17 15 14 13 12 11 10 10 12 12 10 8 8 9
3 1 2 2 0 10 2 11 11 15 3 7 17 10 7 13 18 18 11 17 19 17 18 18 17 19 23 22 21 19 18 16 15 14 14 13 11 11 12 11 9 8 8 9
9 2 2 3 5 3 5 9 5 2 4 10 8 10 12 12 14 17 11 16 20 22 20 19 25 25 24 24 23 21 19 17 17 16 16 17 15 12 12 11 9 7 9 9
7 9 5 3 5 7 5 12 4 1 6 11 10 10 12 12 9 11 13 13 11 14 16 19 26 25 24 24 24 23 21 19 18 18 17 17 16 15 14 12 10 8 9 10
1 3 7 6 2 3 12 12 5 9 3 13 12 11 11 8 10 20 19 14 9 13 15 26 27 26 27 27 26 24 22 21 20 18 17 17 15 16 15 13 11 11 11 12
1 2 3 3 4 4 15 3 3 6 8 11 12 11 14 15 18 18 17 14 11 14 19 26 25 25 27 28 28 26 24 23 20 19 19 18 15 15 15 14 12 12 13 13
1 2 1 2 3 7 10 3 7 6 9 11 12 14 14 16 16 16 15 14 10 14 15 23 26 26 26 29 30 27 26 24 22 20 20 20 17 16 15 16 15 13 12 13
1 1 1 3 3 10 8 8 10 12 12 14 14 14 14 16 16 16 14 12 11 13 17 25 23 23 25 29 30 31 28 27 24 22 21 20 20 17 16 15 16 15 15 13
2 2 4 3 6 8 3 11 15 17 16 17 17 16 14 16 16 15 14 12 11 13 20 26 25 23 29 32 31 27 27 28 26 23 21 21 20 22 18 16 16 16 16 16
4 4 3 2 5 6 12 13 18 17 19 19 20 21 18 17 17 17 14 12 11 14 21 21 23 21 28 31 32 31 30 31 28 24 22 23 22 21 20 19 15 19 17 20

GFSCGP_925_spd_021.txt.gz
Wind_Speed
25 19 27 44 37 33 29 27 31 32 27 29 31 32 25 22 26 26 26 25 19 24 24 28 24 10 7 10 11 15 19 22 25 24 24 22 19 15 13 13 11 12 12 14
24 31 46 26 32 31 33 32 33 29 25 23 27 28 27 25 25 25 28 28 24 22 26 21 16 5 6 9 13 17 19 22 24 21 22 19 15 14 13 11 10 10 12 13
31 44 25 33 31 32 33 33 29 30 24 22 23 27 30 27 25 26 28 29 27 26 25 19 16 8 8 11 15 18 21 24 23 20 17 12 11 6 8 10 11 12 10 11
28 34 32 32 34 34 32 30 27 25 21 20 21 23 26 20 24 24 25 22 21 21 20 19 10 9 11 12 15 19 21 23 21 20 16 14 13 11 8 5 4 3 7 10
33 28 33 36 42 32 37 25 26 26 21 23 26 18 18 20 22 22 21 22 23 21 21 20 13 12 13 16 19 21 23 23 21 17 15 13 9 8 5 5 4 6 7 9
31 28 27 39 33 28 30 27 25 20 19 20 24 21 22 22 21 22 21 20 19 19 18 6 13 16 17 19 21 23 24 21 19 16 13 9 7 2 3 5 2 5 6 6
29 30 28 29 31 35 28 25 16 17 17 22 16 19 23 19 20 19 15 17 12 6 9 12 15 15 20 22 24 24 23 20 18 15 12 9 6 4 5 4 8 5 4 5
22 26 34 28 28 36 32 28 17 29 13 18 23 18 13 16 5 8 15 10 8 9 11 14 16 17 22 24 25 23 21 20 17 15 12 9 7 9 4 4 4 5 3 6
15 28 29 34 24 26 39 28 35 24 20 14 15 16 19 18 16 8 10 16 12 11 13 16 18 17 22 24 23 22 21 19 16 14 12 9 7 2 2 2 2 5 5 5
14 21 29 27 29 33 32 29 22 20 25 19 13 12 8 5 10 12 12 16 14 14 16 17 17 18 22 23 22 21 19 17 15 14 11 10 8 5 4 3 1 4 5 4
19 5 20 33 31 31 25 25 29 22 19 14 12 12 7 4 4 14 14 16 16 17 17 17 17 20 23 22 21 20 18 16 15 13 11 11 9 7 5 4 4 7 7 5
12 7 15 23 29 31 32 29 31 17 25 18 11 3 4 9 10 13 9 12 16 17 18 18 18 18 22 21 20 19 16 16 15 13 11 9 8 6 6 7 6 8 7 6
7 11 13 6 16 30 30 32 27 28 18 19 10 5 7 7 4 5 10 14 16 18 18 18 18 17 17 20 20 18 16 16 15 13 11 10 6 6 6 8 8 8 7 6
7 12 18 6 10 22 30 34 30 28 17 18 18 14 13 13 10 7 12 15 17 17 18 17 17 17 16 20 20 18 16 16 14 12 10 11 5 7 8 9 7 7 8 8
4 17 23 5 21 27 27 30 27 31 22 17 20 12 12 16 14 11 12 13 15 17 17 17 17 16 16 19 19 18 17 16 14 12 12 12 8 10 10 10 9 8 5 4
5 12 19 9 19 27 19 29 25 27 20 19 14 17 10 15 12 10 10 13 15 16 17 17 17 17 16 19 19 18 17 17 15 13 15 11 11 10 12 11 11 9 9 9
9 10 3 6 18 24 16 23 28 22 25 17 11 9 11 5 6 4 11 3 14 15 15 17 17 17 16 20 20 19 18 17 16 14 15 13 12 12 11 11 11 10 12 11
10 13 3 4 14 10 12 12 19 21 21 18 12 13 7 9 9 10 9 12 4 12 15 15 14 15 21 22 21 19 19 18 17 15 15 15 14 13 12 10 10 9 9 7
13 5 4 3 9 15 3 5 4 19 11 12 7 6 10 10 6 1 9 10 10 10 14 14 18 20 20 22 23 21 20 19 18 16 16 16 16 13 16 10 9 8 8 7
6 4 2 6 7 5 7 8 7 2 11 9 6 6 8 8 7 9 9 9 11 13 14 14 21 22 22 23 23 23 22 20 18 18 16 17 15 13 15 12 9 9 7 6
4 2 9 9 9 7 12 12 2 11 6 5 7 7 6 6 10 11 10 7 7 9 7 18 21 21 23 24 24 22 22 21 20 19 17 17 16 13 14 10 10 9 8 10
2 2 5 5 4 4 18 5 3 6 6 7 7 8 6 7 9 9 8 7 6 6 10 18 19 21 25 26 25 22 22 22 21 20 20 19 18 16 15 11 10 11 11 12
1 4 3 5 2 11 7 12 13 12 8 9 8 8 8 8 9 9 7 7 6 6 9 18 20 22 25 27 26 23 23 23 23 22 21 19 18 16 16 13 11 12 11 14
5 7 3 2 6 9 11 13 13 10 12 10 9 8 8 9 10 9 7 6 5 5 8 15 21 20 23 27 27 25 24 25 24 23 22 21 19 17 16 15 13 13 11 12
4 6 7 2 8 8 1 10 11 9 12 13 11 10 10 10 11 11 9 6 4 5 8 15 18 20 24 27 27 27 26 26 25 24 23 22 21 19 18 16 14 12 12 10
4 3 3 2 3 5 10 14 9 10 12 12 13 12 10 10 12 12 10 10 7 6 8 12 18 22 26 29 29 29 29 28 26 23 24 24 22 23 20 19 13 7 10 9

GFSCGP_925_spd_024.txt.gz
Wind_Speed
22 17 25 43 30 30 28 32 32 29 28 28 25 27 30 22 21 22 19 15 18 19 15 13 15 22 21 8 6 9 15 19 28 23 22 19 18 17 16 17 16 14 12 11
20 29 39 22 31 33 33 31 31 28 26 24 23 26 26 22 21 19 20 17 17 17 16 14 13 18 11 10 7 9 16 22 23 21 21 20 18 18 19 17 16 16 12 12
24 37 23 29 31 29 32 32 27 30 25 26 23 26 25 24 24 22 18 17 17 18 18 19 14 7 14 13 12 12 14 18 21 18 20 16 20 16 19 13 9 14 13 11
24 26 32 31 33 31 28 28 28 27 23 18 21 20 24 18 21 19 18 20 17 19 20 20 16 13 16 15 14 14 16 21 20 20 19 16 14 8 11 16 11 8 8 5
34 24 27 32 36 29 34 24 26 27 24 21 25 15 23 16 17 16 15 16 15 15 13 13 9 16 19 20 18 18 19 19 19 21 18 16 14 15 7 4 4 2 1 2
29 27 28 29 28 31 26 27 27 25 18 17 26 20 25 18 17 18 19 17 14 16 15 11 17 22 20 20 20 20 20 18 20 14 17 17 12 4 6 6 5 1 2 5
24 26 29 30 28 29 31 21 16 17 16 22 18 20 22 19 19 21 17 14 11 8 12 19 18 15 17 20 21 21 20 20 18 14 14 9 9 4 3 3 3 3 3 4
12 14 27 29 32 26 30 25 15 24 15 20 23 22 19 19 22 15 8 8 6 9 14 16 14 14 18 21 22 22 21 20 18 16 14 11 10 8 5 3 4 5 3 4
9 15 24 29 28 28 26 27 28 22 21 16 16 20 29 23 18 13 7 10 8 10 13 14 15 14 20 22 22 23 21 20 18 16 14 12 8 9 7 4 3 6 7 8
7 17 21 25 28 33 28 22 25 17 23 21 20 19 9 14 18 12 9 11 14 14 14 14 14 15 21 22 22 22 21 19 18 17 14 13 9 5 6 3 6 7 5 9
13 12 24 21 24 28 24 23 26 18 19 16 14 13 7 9 7 11 12 14 17 15 15 15 15 18 21 22 22 21 20 18 18 17 13 16 11 8 6 5 6 9 5 6
16 7 17 23 27 26 29 25 23 15 24 17 14 15 7 8 8 12 15 18 17 16 16 16 16 15 20 20 21 19 19 18 17 15 17 15 12 8 7 8 8 9 9 7
6 7 9 21 18 21 26 28 25 21 13 19 17 14 6 8 13 13 16 18 16 17 18 17 16 15 14 19 19 19 18 18 16 15 19 18 10 9 8 9 10 9 9 7
2 7 16 11 9 16 13 29 31 24 19 18 19 3 11 13 11 12 16 17 17 17 17 16 15 14 14 19 19 18 17 17 16 14 23 17 11 8 11 10 8 5 8 7
3 7 17 19 10 14 22 27 31 28 24 21 21 10 17 14 12 15 15 16 17 17 16 15 14 14 13 16 18 18 17 17 15 15 20 15 13 12 13 12 9 5 8 4
7 4 18 17 12 15 24 27 23 30 27 27 26 14 12 16 14 14 13 17 16 16 16 16 15 15 14 16 17 17 17 17 14 23 18 17 16 17 15 12 10 7 6 10
12 7 7 12 7 9 17 23 22 26 24 27 18 10 22 14 11 15 14 15 14 15 15 15 14 13 12 17 18 17 17 17 15 22 17 15 15 18 15 15 14 12 10 8
14 11 3 4 10 5 10 14 22 24 23 22 8 13 17 17 15 17 17 13 5 15 14 14 12 13 19 19 19 18 18 17 16 21 21 16 15 14 19 17 15 14 10 10
11 8 4 2 4 15 11 12 12 11 7 19 18 19 17 15 21 16 13 12 10 9 13 13 17 20 20 20 21 18 18 17 17 16 20 16 20 17 12 13 13 11 11 11
10 6 4 1 3 5 8 20 28 16 10 16 15 16 12 6 10 7 11 11 10 10 3 14 20 22 21 21 23 18 18 17 16 16 19 18 25 19 14 11 11 9 9 10
2 2 4 3 1 7 18 28 24 3 3 9 14 13 13 11 8 4 7 8 8 8 6 21 22 19 21 22 23 18 18 16 17 18 18 19 26 23 17 13 11 10 11 13
3 4 1 3 4 5 19 14 9 7 4 11 12 11 11 8 8 8 7 7 7 8 8 20 17 20 23 24 23 18 18 18 18 19 19 23 25 21 17 14 12 14 15 16
4 4 3 5 2 6 13 8 12 11 10 13 12 11 10 10 9 7 6 5 6 6 6 12 19 21 23 24 23 18 20 19 18 20 18 25 19 21 21 14 17 17 16 16
6 12 3 1 5 10 11 14 13 16 15 16 11 11 11 9 9 8 7 4 4 5 7 12 20 18 19 24 24 20 23 21 20 20 20 26 20 23 21 15 13 17 19 16
3 5 8 4 8 9 9 15 16 9 11 12 12 11 8 8 9 10 8 9 6 4 6 12 13 18 22 24 24 23 25 23 21 22 20 20 18 21 20 17 15 15 7 9
4 5 2 1 6 5 8 10 13 9 7 7 8 10 8 8 8 10 10 10 10 10 7 8 10 22 25 25 24 25 25 24 22 22 21 20 19 17 19 15 12 5 12 9

GFSCGP_925_spd_030.txt.gz
Wind_Speed
3 4 18 27 17 10 10 12 15 4 10 14 20 22 20 17 19 14 17 17 19 17 18 24 30 34 23 20 25 23 22 29 30 31 30 29 29 28 24 26 25 21 25 25
4 18 14 10 6 12 14 15 19 6 8 10 14 25 25 24 24 19 22 21 17 14 12 10 13 17 18 22 19 19 24 29 32 31 29 25 31 27 27 23 22 24 23 25
10 6 9 16 13 17 16 18 14 10 11 20 7 19 18 18 14 12 11 13 12 16 14 12 10 18 19 20 23 23 26 29 29 28 28 22 24 23 18 21 20 21 22 24
11 12 14 14 19 17 18 12 11 16 13 15 4 20 24 19 25 18 13 11 15 13 9 10 9 6 18 21 20 20 22 28 28 28 29 30 21 20 16 20 17 19 22 21
12 9 4 13 16 15 19 14 11 13 11 14 14 6 30 10 18 17 18 19 19 14 11 13 12 8 18 24 23 23 24 26 28 29 29 29 25 20 16 15 15 15 18 16
13 9 14 13 14 12 8 10 16 17 4 8 12 13 22 15 18 11 12 11 12 10 10 1 5 20 19 25 26 27 28 28 28 26 27 27 23 17 19 18 18 18 15 10
3 9 11 11 12 11 7 1 4 4 6 16 13 9 21 11 7 11 15 15 14 9 5 8 10 11 16 19 26 28 29 29 27 26 24 22 18 18 23 22 18 14 11 9
6 4 9 2 2 6 7 9 5 7 5 8 14 10 9 16 25 25 17 17 6 4 5 8 10 11 14 20 24 26 28 28 27 25 23 22 22 22 18 15 15 13 9 5
0 5 2 7 8 2 5 10 7 5 14 2 7 9 8 19 24 22 18 5 6 7 9 11 11 12 17 18 23 27 28 28 27 26 24 20 18 18 16 12 10 8 6 7
6 5 5 6 5 3 6 4 3 4 8 6 6 6 11 8 10 10 10 10 7 6 12 12 11 11 16 22 27 29 28 29 26 24 20 18 18 16 12 9 9 8 8 9
3 1 5 5 4 8 3 2 3 4 4 10 3 6 5 13 12 17 8 14 15 13 13 13 12 12 18 22 24 27 27 26 24 22 20 18 18 14 12 10 11 11 9 10
1 2 4 10 15 13 4 6 5 2 7 4 4 16 12 16 9 19 12 15 12 13 13 13 13 12 17 18 24 26 25 24 22 22 20 19 19 17 14 11 11 11 9 9
4 2 4 9 2 7 6 3 1 4 6 16 6 9 3 8 7 4 19 16 14 14 15 13 13 13 12 17 20 25 25 24 23 21 18 22 19 17 14 12 9 11 11 8
2 4 6 6 7 7 8 8 7 3 3 11 16 16 22 21 8 6 6 17 18 17 17 15 13 13 13 18 20 23 27 26 23 22 23 22 18 15 15 14 11 10 8 7
7 4 10 12 17 17 18 16 12 8 6 4 7 17 18 17 13 11 12 17 18 18 17 16 15 13 12 16 19 24 28 26 24 21 22 19 15 15 16 15 9 7 8 6
6 4 5 15 18 18 19 13 12 11 12 11 15 26 13 9 9 6 18 20 19 18 17 17 16 15 14 17 19 25 27 26 24 23 22 19 16 16 15 14 9 6 10 12
8 5 3 8 13 3 4 12 9 5 7 6 7 12 15 7 2 7 8 19 20 19 18 18 17 16 14 20 23 25 27 25 23 22 23 23 19 17 15 15 11 9 12 11
9 5 4 6 6 4 5 11 5 6 8 1 12 15 5 8 7 7 6 9 18 18 18 17 15 14 21 24 27 29 30 26 24 21 22 22 19 18 16 15 14 11 11 14
14 8 3 2 2 3 3 9 8 10 5 4 13 7 8 5 6 9 2 5 8 18 16 16 21 24 24 27 31 30 27 27 25 19 23 22 19 19 17 16 14 13 12 14
9 9 3 3 4 2 1 9 16 11 5 8 14 11 3 20 12 6 5 4 6 8 13 15 23 25 26 26 32 29 25 24 22 21 26 24 22 22 21 18 16 14 15 15
2 3 7 7 4 3 3 14 16 5 3 18 16 10 7 6 2 4 6 7 8 7 13 21 25 24 27 32 31 24 25 23 27 26 27 26 24 23 20 18 16 13 12 14
2 3 1 3 1 4 14 14 7 6 7 11 15 11 8 8 9 4 7 5 8 9 16 23 19 20 25 32 30 23 23 29 26 26 27 27 25 23 20 18 13 11 14 18
2 4 2 2 1 4 11 11 6 8 9 11 14 17 14 14 9 8 6 1 7 6 8 20 21 19 23 29 30 24 29 25 22 29 25 28 24 23 20 19 16 13 17 23
3 3 4 5 5 1 10 13 12 9 11 15 13 12 16 10 7 5 4 8 8 7 7 13 14 15 17 26 30 35 31 24 27 29 29 30 27 24 20 18 18 18 20 20
2 6 6 4 5 7 10 12 13 18 15 17 15 10 13 14 7 5 7 11 9 9 8 12 14 13 19 25 31 34 31 25 29 29 30 27 28 26 22 19 19 19 19 23
3 2 0 2 5 3 6 9 11 13 18 24 21 10 11 11 10 9 11 10 9 10 15 11 13 20 19 23 26 34 33 28 31 24 26 26 27 26 24 21 17 17 16 19

GFSCGP_925_spd_033.txt.gz
Wind_Speed
5 4 15 18 15 12 6 6 2 4 7 12 17 27 24 18 19 22 22 23 23 20 15 22 30 40 37 36 32 29 28 29 29 30 27 27 30 30 27 28 26 24 23 23
3 17 7 1 3 9 12 10 8 6 11 5 10 17 17 14 16 17 17 16 15 14 16 16 22 29 32 37 32 29 31 28 30 32 26 17 24 26 27 24 23 24 22 21
8 6 5 11 6 10 7 8 9 8 9 18 12 18 15 12 11 15 12 15 11 13 15 12 13 19 24 24 29 27 24 26 27 27 22 18 22 21 20 23 23 20 22 23
6 7 10 7 6 15 15 4 9 4 5 9 0 16 20 18 23 20 12 16 14 15 11 9 11 12 18 26 20 18 19 22 24 24 24 28 22 20 20 29 26 23 25 23
8 6 3 10 10 8 7 12 11 10 8 4 4 4 24 5 17 20 20 19 22 21 16 13 14 9 18 14 16 14 18 20 23 26 29 31 27 20 23 22 21 19 20 20
17 7 9 7 8 8 6 4 8 9 2 5 11 9 24 9 16 12 10 10 11 11 10 10 8 9 9 13 18 20 22 23 25 25 28 30 30 22 21 18 17 16 16 18
5 15 7 7 6 5 5 3 1 2 3 12 12 11 25 7 4 4 8 10 11 10 9 9 7 6 9 14 18 23 25 26 24 24 24 23 23 18 19 19 19 20 18 16
1 3 9 6 11 7 7 9 4 6 5 5 11 13 11 10 16 17 14 11 9 10 7 7 6 6 10 16 20 24 27 26 24 23 21 20 19 19 19 20 19 16 14 9
4 3 2 2 1 5 2 4 9 4 3 2 7 9 13 21 18 9 11 7 10 9 4 6 7 9 12 15 20 26 28 28 27 26 24 23 21 21 20 17 14 12 8 9
4 0 4 5 3 6 5 3 3 1 5 5 5 8 12 6 23 3 9 9 9 5 7 8 8 10 14 19 24 29 30 29 30 29 26 24 21 19 17 14 13 11 11 10
3 1 3 2 4 3 2 2 4 3 5 4 3 6 7 12 8 9 14 14 9 9 9 9 8 10 16 21 23 26 31 32 30 26 24 23 20 17 14 13 13 13 13 10
3 2 4 8 7 8 2 4 3 3 6 8 2 7 8 6 6 9 14 16 7 9 9 10 9 10 14 16 21 25 29 30 27 25 22 21 18 15 13 13 13 12 12 10
2 1 3 7 3 4 1 5 5 3 1 10 5 7 8 8 11 9 7 5 5 13 12 11 10 11 11 16 18 24 28 28 25 22 21 19 17 16 14 13 13 11 11 8
5 3 4 4 7 6 9 11 5 4 3 6 20 13 30 12 13 16 9 5 3 10 12 12 10 10 9 15 18 22 25 26 23 21 20 20 18 16 14 12 10 12 10 8
6 5 5 9 12 14 15 16 17 12 8 7 7 7 21 9 14 14 8 7 9 7 13 12 11 10 9 13 17 21 25 24 23 21 21 20 16 14 14 13 10 9 7 5
3 4 3 9 10 19 18 19 18 17 17 13 13 19 14 7 10 13 10 13 14 11 12 13 13 12 12 14 17 21 26 25 22 20 19 19 15 15 14 12 8 8 9 9
6 4 1 6 10 11 12 20 22 15 12 12 10 8 7 13 8 6 6 13 17 16 15 15 15 13 12 18 21 21 28 25 22 19 18 19 16 16 14 14 9 11 11 13
4 4 4 5 5 6 4 9 8 15 13 13 7 11 14 12 6 2 4 2 9 12 12 15 13 12 17 21 25 28 27 24 21 17 19 20 19 18 14 14 10 13 13 14
15 7 3 3 3 8 8 7 5 4 2 6 6 8 8 5 5 2 4 4 4 5 9 10 19 19 21 24 29 27 24 24 21 19 22 22 20 18 16 16 14 12 14 14
10 14 7 3 3 4 3 7 11 10 5 6 11 10 10 6 3 3 2 4 6 6 9 10 19 20 21 23 30 25 22 22 19 20 25 22 21 20 19 18 16 13 13 15
1 2 9 7 4 5 4 12 11 6 2 14 14 13 12 4 4 3 4 0 4 5 8 16 19 20 23 28 28 20 22 21 26 23 26 23 21 20 19 18 16 14 13 15
3 3 2 3 5 3 10 12 3 5 6 8 13 13 11 6 5 3 9 10 12 6 12 20 16 16 23 29 27 19 20 29 24 24 25 23 21 20 17 17 14 13 14 16
3 3 2 2 2 2 11 13 9 7 6 4 11 15 13 0 8 9 7 7 10 8 13 22 20 17 21 27 27 21 28 27 24 24 24 22 19 18 17 17 14 13 15 18
3 3 3 4 3 5 9 9 12 15 14 14 13 15 8 13 11 13 9 8 6 3 7 18 18 15 16 24 27 33 30 26 26 25 24 21 20 18 17 14 14 14 16 18
2 5 6 4 5 9 9 12 13 18 18 21 14 4 11 16 14 12 10 6 9 8 2 12 16 16 19 26 29 30 29 26 25 25 26 25 22 21 17 15 14 12 13 17
2 4 3 3 10 4 10 7 11 11 14 19 13 11 15 17 16 13 9 7 9 7 10 8 11 16 20 27 27 29 28 27 26 22 22 26 24 21 19 17 13 11 9 11

GFSCGP_925_spd_036.txt.gz
Wind_Speed
4 4 13 11 10 9 5 3 1 1 2 2 16 21 18 12 13 15 18 18 18 18 18 23 27 32 35 38 38 38 34 30 24 25 25 25 25 25 24 24 22 24 26 26
4 9 7 4 6 9 10 2 4 5 9 4 6 12 13 10 12 14 17 17 14 12 10 11 19 31 33 32 37 33 30 25 24 27 26 14 20 16 21 20 20 22 24 23
7 7 3 5 5 5 4 5 3 6 9 10 9 16 15 12 11 15 15 15 14 15 16 15 12 19 29 31 36 30 26 20 22 26 23 14 15 10 17 20 21 23 22 21
6 7 7 7 5 11 11 4 2 3 3 7 3 10 16 15 20 14 12 15 15 11 13 13 10 12 24 35 31 26 18 17 22 25 24 25 18 13 16 26 24 21 20 21
10 6 3 4 6 7 6 11 8 4 4 4 6 4 14 4 13 9 14 18 19 21 15 14 12 14 28 28 24 15 14 17 21 24 23 24 21 19 21 23 23 21 19 16
12 9 4 7 8 5 4 5 4 3 3 6 7 8 22 10 18 14 8 13 11 9 10 11 11 15 18 12 9 10 16 19 23 26 24 24 26 25 26 23 23 20 18 18
9 10 13 6 4 2 4 5 1 1 3 9 14 9 21 3 7 6 8 10 9 9 9 9 8 7 4 5 10 15 19 22 23 23 26 26 27 28 28 24 22 20 19 17
5 4 7 8 10 7 6 8 4 6 5 4 7 12 8 13 15 12 9 11 10 10 9 9 8 5 7 10 15 20 23 24 21 23 24 25 24 24 23 23 21 19 18 15
4 1 5 6 2 10 5 5 9 2 3 1 5 7 9 12 19 8 7 8 11 10 8 4 2 6 10 13 18 25 26 25 24 25 25 23 21 20 19 18 17 17 14 12
3 5 5 4 3 11 5 4 4 1 4 5 5 6 7 7 9 5 9 10 12 10 2 4 7 9 11 18 22 26 26 26 25 25 24 22 20 20 20 19 17 13 12 10
2 0 4 2 4 5 1 1 2 3 4 3 3 5 6 4 5 7 9 9 11 11 7 9 9 9 14 19 22 24 28 28 27 26 26 24 22 20 18 15 13 13 13 13
2 1 3 6 6 4 2 3 2 4 6 7 3 6 5 5 4 6 13 15 8 3 7 10 11 12 12 15 19 23 26 29 29 27 26 23 20 17 15 14 13 14 14 11
1 1 3 5 3 4 3 3 4 2 1 5 4 7 5 10 15 13 14 9 4 2 6 9 12 10 9 13 18 22 25 28 27 26 24 21 18 16 15 15 15 13 12 11
3 4 5 4 2 2 4 8 9 5 4 7 15 12 21 22 13 17 19 9 2 4 7 8 11 9 9 13 17 20 25 27 25 24 22 19 16 14 14 13 13 11 12 9
6 6 6 9 11 10 11 13 14 14 12 9 3 3 13 15 16 16 12 8 5 6 7 8 9 10 9 12 16 21 26 25 23 22 19 17 14 13 13 11 12 12 9 7
2 3 2 10 11 13 16 15 17 18 18 17 15 14 16 18 12 9 13 11 7 8 9 7 8 9 11 13 16 20 24 24 22 19 17 16 15 14 15 13 11 10 8 11
4 2 1 5 5 7 9 18 19 19 15 11 15 7 15 11 11 12 12 8 9 11 11 11 10 10 10 17 20 22 25 22 19 17 16 16 15 15 15 13 9 10 12 13
7 7 3 3 1 5 4 4 10 20 16 14 9 10 5 9 14 15 6 7 7 10 11 11 9 7 11 19 24 26 23 21 18 15 15 16 16 17 16 14 9 11 11 13
14 9 3 3 4 9 11 2 5 5 2 9 6 11 9 11 11 6 6 3 4 8 9 9 15 16 15 20 26 25 21 20 17 15 17 19 18 18 16 15 11 11 12 13
13 13 7 4 4 5 2 2 10 7 3 5 3 8 10 9 4 5 4 4 3 5 10 11 17 17 20 21 25 23 20 19 18 16 19 19 18 18 17 17 14 12 12 12
1 3 12 9 5 6 7 12 10 5 0 8 7 8 11 5 6 3 3 4 2 2 9 19 21 17 22 26 25 19 20 20 22 17 19 19 17 17 16 16 15 13 13 12
3 4 2 3 4 4 10 10 5 6 11 11 9 9 12 12 13 6 4 3 2 4 9 20 16 16 22 26 25 19 19 24 19 18 21 19 16 16 15 14 11 12 14 14
2 2 3 2 2 4 7 11 16 17 14 9 10 12 10 12 6 4 5 4 6 3 10 19 18 17 23 27 26 21 24 22 20 19 21 18 15 14 14 14 12 12 13 13
3 0 3 5 2 10 6 11 11 11 10 10 10 10 9 5 6 3 5 7 6 2 6 11 17 12 15 26 28 30 26 23 22 20 20 18 16 14 13 12 11 11 13 10
3 5 6 4 6 13 5 13 12 15 16 17 10 5 7 3 5 5 6 7 6 8 2 13 13 15 17 25 28 29 26 25 23 21 21 19 17 16 14 10 9 8 10 12
2 4 3 3 11 6 9 11 14 16 15 15 12 11 11 4 9 11 10 10 13 8 6 5 11 13 17 24 26 28 26 27 24 20 20 21 20 18 15 13 10 6 6 6